THY1596 LTAC-LTBA

Flight info

Callsign THY1596
Flight time N/A
Altitude 28000
Route PETAR UG8 TOKER
Aircraft A320/M-SDE3FGHIRWY/LB1

Departure

Time 2026-04-28 18:14
Airport Esenboğa International Airport (LTAC)

Arrival

Time N/A
Airport İstanbul Atatürk Airport (LTBA)
Time Latitude Longitude Altitude Speed Heading
2026-04-28 18:10 40.11436 32.98763 3136 ft 0 kts 126°
2026-04-28 18:11 40.14078 33.00861 3137 ft 0 kts 216°
2026-04-28 18:13 40.14077 33.00861 3136 ft 1 kts 216°
2026-04-28 18:13 40.13892 33.00684 3137 ft 67 kts 216°
2026-04-28 18:13 40.13338 33.00156 3137 ft 128 kts 216°
2026-04-28 18:13 40.12511 32.99360 3228 ft 164 kts 217°
2026-04-28 18:14 40.11542 32.98370 3652 ft 184 kts 218°
2026-04-28 18:14 40.10466 32.97290 4090 ft 208 kts 217°
2026-04-28 18:14 40.09242 32.96094 4492 ft 236 kts 217°
2026-04-28 18:14 40.07824 32.94726 4907 ft 268 kts 216°
2026-04-28 18:15 40.06236 32.93201 5316 ft 299 kts 216°
2026-04-28 18:15 40.04503 32.91544 5714 ft 327 kts 216°
2026-04-28 18:15 40.02762 32.89423 6071 ft 353 kts 231°
2026-04-28 18:15 40.01731 32.86497 6471 ft 372 kts 255°
2026-04-28 18:16 40.01585 32.83402 6850 ft 390 kts 273°
2026-04-28 18:16 40.02370 32.79981 7239 ft 390 kts 293°
2026-04-28 18:16 40.03959 32.77351 7587 ft 352 kts 315°
2026-04-28 18:16 40.05856 32.75608 7968 ft 318 kts 323°
2026-04-28 18:17 40.07533 32.73912 8321 ft 296 kts 317°
2026-04-28 18:17 40.09023 32.72126 8690 ft 290 kts 313°
2026-04-28 18:17 40.10419 32.70231 9065 ft 287 kts 310°
2026-04-28 18:17 40.11715 32.68303 9434 ft 286 kts 308°
2026-04-28 18:18 40.12976 32.66300 9809 ft 285 kts 306°
2026-04-28 18:18 40.14203 32.64264 10184 ft 285 kts 305°
2026-04-28 18:18 40.15403 32.62214 10579 ft 285 kts 304°
2026-04-28 18:18 40.16205 32.60822 10836 ft 290 kts 304°
2026-04-28 18:19 40.17817 32.57994 11441 ft 290 kts 304°
2026-04-28 18:19 40.18892 32.55769 11875 ft 289 kts 293°
2026-04-28 18:19 40.19477 32.53257 12340 ft 290 kts 281°
2026-04-28 18:19 40.19721 32.50917 12748 ft 292 kts 275°
2026-04-28 18:20 40.19806 32.48262 13201 ft 293 kts 270°
2026-04-28 18:20 40.19772 32.45629 13647 ft 295 kts 268°
2026-04-28 18:20 40.19664 32.42909 14105 ft 296 kts 266°
2026-04-28 18:20 40.19517 32.40251 14550 ft 298 kts 266°
2026-04-28 18:21 40.19340 32.37509 15007 ft 300 kts 265°
2026-04-28 18:21 40.19152 32.34818 15453 ft 301 kts 265°
2026-04-28 18:21 40.18950 32.32054 15908 ft 303 kts 265°
2026-04-28 18:21 40.18773 32.29689 16296 ft 305 kts 265°
2026-04-28 18:22 40.18563 32.26925 16746 ft 307 kts 265°
2026-04-28 18:22 40.18350 32.24137 17198 ft 309 kts 264°
2026-04-28 18:22 40.18135 32.21339 17648 ft 311 kts 264°
2026-04-28 18:22 40.17932 32.18703 18069 ft 313 kts 264°
2026-04-28 18:23 40.17712 32.15862 18520 ft 315 kts 264°
2026-04-28 18:23 40.17507 32.13031 18967 ft 317 kts 266°
2026-04-28 18:23 40.17409 32.10175 19415 ft 319 kts 269°
2026-04-28 18:23 40.17417 32.07233 19873 ft 321 kts 271°
2026-04-28 18:24 40.17488 32.04706 20264 ft 323 kts 272°
2026-04-28 18:24 40.17572 32.02778 20560 ft 325 kts 273°
2026-04-28 18:24 40.17799 31.98825 21162 ft 328 kts 274°
2026-04-28 18:24 40.17998 31.95902 21605 ft 330 kts 275°
2026-04-28 18:25 40.18223 31.92878 22059 ft 333 kts 275°
2026-04-28 18:25 40.18498 31.89858 22511 ft 335 kts 277°
2026-04-28 18:25 40.18810 31.86823 22962 ft 338 kts 277°
2026-04-28 18:26 40.19493 31.80701 23864 ft 343 kts 278°
2026-04-28 18:26 40.19852 31.77604 24316 ft 345 kts 278°
2026-04-28 18:26 40.20155 31.75002 24693 ft 347 kts 278°
2026-04-28 18:26 40.20523 31.71870 25143 ft 350 kts 278°
2026-04-28 18:27 40.20894 31.68716 25601 ft 352 kts 278°
2026-04-28 18:27 40.21263 31.65583 26085 ft 354 kts 278°
2026-04-28 18:27 40.21644 31.62340 26591 ft 357 kts 278°
2026-04-28 18:27 40.22016 31.59169 27084 ft 360 kts 278°
2026-04-28 18:28 40.22398 31.55913 27587 ft 363 kts 278°
2026-04-28 18:28 40.22782 31.52632 28088 ft 366 kts 278°
2026-04-28 18:28 40.23168 31.49325 28590 ft 370 kts 278°
2026-04-28 18:28 40.23556 31.45994 29090 ft 372 kts 278°
2026-04-28 18:29 40.23913 31.42918 29549 ft 375 kts 278°
2026-04-28 18:29 40.24306 31.39524 29886 ft 382 kts 278°
2026-04-28 18:29 40.24711 31.36024 29977 ft 395 kts 278°
2026-04-28 18:30 40.25545 31.28771 30000 ft 409 kts 278°
2026-04-28 18:30 40.26389 31.21397 29997 ft 414 kts 278°
2026-04-28 18:31 40.27238 31.13949 29996 ft 416 kts 278°
2026-04-28 18:31 40.28089 31.06422 29996 ft 417 kts 278°
2026-04-28 18:32 40.28933 30.98920 29996 ft 417 kts 278°
2026-04-28 18:32 40.29769 30.91429 29996 ft 418 kts 278°
2026-04-28 18:33 40.30603 30.83896 29996 ft 418 kts 278°
2026-04-28 18:33 40.31942 30.76498 29997 ft 419 kts 287°
2026-04-28 18:34 40.34050 30.69374 29997 ft 420 kts 291°
2026-04-28 18:34 40.36271 30.62782 29996 ft 420 kts 293°
2026-04-28 18:35 40.38746 30.55703 29996 ft 420 kts 293°
2026-04-28 18:35 40.41083 30.49061 29996 ft 420 kts 293°
2026-04-28 18:36 40.43452 30.42308 29910 ft 422 kts 293°
2026-04-28 18:36 40.44680 30.38790 29477 ft 427 kts 293°
2026-04-28 18:36 40.45917 30.35238 29032 ft 429 kts 293°
2026-04-28 18:36 40.47160 30.31660 28583 ft 430 kts 293°
2026-04-28 18:37 40.48398 30.28085 28135 ft 430 kts 293°
2026-04-28 18:37 40.49491 30.24927 27738 ft 429 kts 293°
2026-04-28 18:37 40.50720 30.21360 27287 ft 426 kts 292°
2026-04-28 18:37 40.51751 30.17943 26860 ft 423 kts 289°
2026-04-28 18:38 40.52672 30.14348 26416 ft 419 kts 287°
2026-04-28 18:38 40.53517 30.10718 25968 ft 415 kts 285°
2026-04-28 18:38 40.54320 30.07082 25517 ft 411 kts 285°
2026-04-28 18:38 40.55096 30.03477 25066 ft 408 kts 285°
2026-04-28 18:39 40.55857 29.99894 24614 ft 404 kts 284°
2026-04-28 18:39 40.56354 29.97539 24315 ft 402 kts 284°
2026-04-28 18:39 40.57291 29.93088 23747 ft 398 kts 284°
2026-04-28 18:39 40.58024 29.89596 23296 ft 395 kts 284°
2026-04-28 18:40 40.58752 29.86129 22845 ft 391 kts 284°
2026-04-28 18:40 40.59461 29.82752 22402 ft 388 kts 284°
2026-04-28 18:40 40.60176 29.79345 21950 ft 384 kts 284°
2026-04-28 18:40 40.60884 29.75972 21498 ft 380 kts 284°
2026-04-28 18:41 40.61583 29.72642 21047 ft 376 kts 284°
2026-04-28 18:41 40.62276 29.69345 20597 ft 372 kts 284°
2026-04-28 18:41 40.62964 29.66073 20146 ft 369 kts 284°
2026-04-28 18:41 40.63639 29.62859 19698 ft 366 kts 284°
2026-04-28 18:42 40.64303 29.59702 19255 ft 363 kts 284°
2026-04-28 18:42 40.64990 29.56435 18793 ft 360 kts 284°
2026-04-28 18:42 40.65654 29.53276 18343 ft 357 kts 284°
2026-04-28 18:42 40.66304 29.50183 17899 ft 355 kts 284°
2026-04-28 18:43 40.66955 29.47085 17452 ft 353 kts 284°
2026-04-28 18:43 40.67613 29.43949 16997 ft 351 kts 284°
2026-04-28 18:43 40.68259 29.40868 16548 ft 349 kts 284°
2026-04-28 18:43 40.68904 29.37793 16098 ft 347 kts 284°
2026-04-28 18:44 40.69329 29.35769 15800 ft 346 kts 284°
2026-04-28 18:44 40.70749 29.28994 14790 ft 337 kts 284°
2026-04-28 18:44 40.71366 29.26052 14338 ft 331 kts 284°
2026-04-28 18:45 40.71974 29.23154 13885 ft 324 kts 284°
2026-04-28 18:45 40.72562 29.20356 13439 ft 319 kts 284°
2026-04-28 18:45 40.73147 29.17569 12987 ft 313 kts 284°
2026-04-28 18:45 40.73724 29.14821 12535 ft 308 kts 284°
2026-04-28 18:46 40.74293 29.12116 12083 ft 304 kts 284°
2026-04-28 18:46 40.74853 29.09453 11632 ft 300 kts 284°
2026-04-28 18:46 40.75408 29.06813 11180 ft 296 kts 284°
2026-04-28 18:46 40.75951 29.04227 10732 ft 293 kts 284°
2026-04-28 18:47 40.76407 29.02057 10352 ft 290 kts 284°
2026-04-28 18:47 40.76939 28.99528 9837 ft 286 kts 284°
2026-04-28 18:47 40.77277 28.97925 9500 ft 267 kts 284°
2026-04-28 18:47 40.77927 28.94853 8637 ft 249 kts 284°
2026-04-28 18:48 40.78389 28.92674 8012 ft 246 kts 284°
2026-04-28 18:48 40.78682 28.91294 7615 ft 246 kts 284°
2026-04-28 18:48 40.79077 28.89427 7078 ft 245 kts 284°
2026-04-28 18:48 40.79537 28.87255 6449 ft 244 kts 284°
2026-04-28 18:49 40.79985 28.85104 5823 ft 243 kts 285°
2026-04-28 18:49 40.80216 28.83939 5484 ft 243 kts 285°
2026-04-28 18:49 40.80755 28.81050 4644 ft 241 kts 284°
2026-04-28 18:49 40.81136 28.78918 4016 ft 237 kts 284°
2026-04-28 18:50 40.81514 28.76836 3381 ft 227 kts 284°
2026-04-28 18:50 40.82009 28.74243 3001 ft 215 kts 284°
2026-04-28 18:50 40.82262 28.72941 3006 ft 219 kts 284°
2026-04-28 18:50 40.82542 28.71502 3006 ft 222 kts 284°
2026-04-28 18:51 40.82923 28.69540 3004 ft 225 kts 284°
2026-04-28 18:51 40.83320 28.67499 3002 ft 227 kts 284°
2026-04-28 18:51 40.83713 28.65480 3002 ft 228 kts 284°
2026-04-28 18:51 40.84108 28.63452 3001 ft 229 kts 284°
2026-04-28 18:52 40.84455 28.61668 3001 ft 229 kts 284°
2026-04-28 18:52 40.84804 28.59869 3000 ft 229 kts 284°
2026-04-28 18:52 40.85149 28.57783 2978 ft 230 kts 278°
2026-04-28 18:52 40.85102 28.55901 3025 ft 231 kts 267°
2026-04-28 18:53 40.84887 28.53795 2956 ft 234 kts 252°
2026-04-28 18:53 40.83887 28.52122 3047 ft 235 kts 224°
2026-04-28 18:53 40.82839 28.50454 2965 ft 239 kts 241°
2026-04-28 18:53 40.82651 28.48319 2996 ft 241 kts 276°
2026-04-28 18:54 40.83433 28.46374 3002 ft 244 kts 310°
2026-04-28 18:54 40.84606 28.45447 3003 ft 245 kts 338°
2026-04-28 18:54 40.86287 28.45426 3024 ft 246 kts
2026-04-28 18:54 40.87910 28.46179 3026 ft 245 kts 21°
2026-04-28 18:55 40.89559 28.47131 3001 ft 240 kts 24°
2026-04-28 18:55 40.90792 28.47805 2982 ft 237 kts 20°
2026-04-28 18:55 40.92417 28.47750 2979 ft 238 kts 345°
2026-04-28 18:55 40.93736 28.46452 3000 ft 242 kts 311°
2026-04-28 18:56 40.94274 28.44368 3003 ft 244 kts 276°
2026-04-28 18:56 40.93911 28.42194 3063 ft 244 kts 251°
2026-04-28 18:56 40.93053 28.40298 3009 ft 244 kts 233°
2026-04-28 18:56 40.91792 28.38776 2969 ft 243 kts 213°
2026-04-28 18:57 40.90177 28.38332 2992 ft 243 kts 179°
2026-04-28 18:57 40.88843 28.38914 3037 ft 244 kts 155°
2026-04-28 18:57 40.87577 28.40387 3001 ft 245 kts 128°
2026-04-28 18:57 40.86886 28.42444 3034 ft 246 kts 110°
2026-04-28 18:58 40.86486 28.44172 3009 ft 243 kts 106°
2026-04-28 18:58 40.86176 28.46313 3001 ft 238 kts 98°
2026-04-28 18:58 40.86024 28.48480 2998 ft 236 kts 94°
2026-04-28 18:58 40.86264 28.50604 3007 ft 235 kts 75°
2026-04-28 18:59 40.86872 28.52642 3011 ft 236 kts 66°
2026-04-28 18:59 40.87566 28.54602 3001 ft 234 kts 64°
2026-04-28 18:59 40.88152 28.56185 2999 ft 233 kts 64°
2026-04-28 18:59 40.88840 28.58020 2999 ft 232 kts 63°
2026-04-28 19:00 40.89377 28.59446 2999 ft 231 kts 63°
2026-04-28 19:00 40.90095 28.61354 3123 ft 223 kts 63°
2026-04-28 19:00 40.90780 28.63170 3311 ft 228 kts 63°
2026-04-28 19:00 40.91461 28.65053 3708 ft 192 kts 64°
2026-04-28 19:01 40.91892 28.66231 5170 ft 136 kts 61°
2026-04-28 19:01 40.92343 28.67421 5306 ft 166 kts 59°
2026-04-28 19:01 40.92771 28.69094 4382 ft 211 kts 78°
2026-04-28 19:01 40.92967 28.71019 4153 ft 213 kts 80°
2026-04-28 19:02 40.93185 28.72796 4033 ft 220 kts 79°
2026-04-28 19:02 40.93516 28.74783 3898 ft 225 kts 71°
2026-04-28 19:02 40.94419 28.76483 3732 ft 229 kts 48°
2026-04-28 19:02 40.95271 28.78220 3689 ft 234 kts 68°
2026-04-28 19:03 40.95417 28.80359 3760 ft 238 kts 89°
2026-04-28 19:03 40.95348 28.82021 3769 ft 239 kts 93°
2026-04-28 19:03 40.95222 28.84077 3768 ft 237 kts 94°
2026-04-28 19:03 40.95086 28.86183 3766 ft 236 kts 94°